Time,TemperatureF,DewpointF,PressureIn,WindDirection,WindDirectionDegrees,WindSpeedMPH,WindSpeedGustMPH,Humidity,HourlyPrecipIn,Conditions,Clouds,dailyrainin,SoftwareType,DateUTC
2013-03-03 00:01:00,40.0,21.0,-100.00,WSW,247,6.0,6.0,45,-99.99,,,-99.99,,2013-03-03 07:01:00,
2013-03-03 00:11:00,41.0,21.0,-100.00,WSW,251,5.0,5.0,45,-99.99,,,-99.99,,2013-03-03 07:11:00,
2013-03-03 00:21:00,39.0,22.0,-100.00,WSW,252,7.0,7.0,49,-99.99,,,-99.99,,2013-03-03 07:21:00,
2013-03-03 00:31:00,39.0,22.0,-100.00,WSW,252,7.0,7.0,49,-99.99,,,-99.99,,2013-03-03 07:31:00,
2013-03-03 00:42:00,39.0,21.0,-100.00,WSW,251,8.0,8.0,49,-99.99,,,-99.99,,2013-03-03 07:42:00,
2013-03-03 00:51:00,39.0,21.0,-100.00,West,263,8.0,8.0,47,-99.99,,,-99.99,,2013-03-03 07:51:00,
2013-03-03 01:01:00,39.0,21.0,-100.00,WSW,258,8.0,8.0,47,-99.99,,,-99.99,,2013-03-03 08:01:00,
2013-03-03 01:11:00,40.0,21.0,-100.00,WSW,254,3.0,6.0,46,-99.99,,,-99.99,,2013-03-03 08:11:00,
2013-03-03 01:21:00,40.0,21.0,-100.00,WSW,254,3.0,6.0,46,-99.99,,,-99.99,,2013-03-03 08:21:00,
2013-03-03 01:31:00,37.0,24.0,-100.00,North,351,4.0,5.0,60,-99.99,,,-99.99,,2013-03-03 08:31:00,
2013-03-03 01:41:00,37.0,24.0,-100.00,North,351,4.0,5.0,60,-99.99,,,-99.99,,2013-03-03 08:41:00,
2013-03-03 01:53:00,38.0,21.0,-100.00,WNW,295,0.0,0.0,50,-99.99,,,-99.99,,2013-03-03 08:53:00,
2013-03-03 02:01:00,37.0,22.0,-100.00,North,354,3.0,4.0,52,-99.99,,,-99.99,,2013-03-03 09:01:00,
2013-03-03 02:11:00,38.0,21.0,-100.00,NW,324,3.0,4.0,50,-99.99,,,-99.99,,2013-03-03 09:11:00,
2013-03-03 02:21:00,38.0,21.0,-100.00,NNW,347,2.0,3.0,50,-99.99,,,-99.99,,2013-03-03 09:21:00,
2013-03-03 02:31:00,39.0,21.0,-100.00,West,277,2.0,3.0,49,-99.99,,,-99.99,,2013-03-03 09:31:00,
2013-03-03 02:41:00,34.0,22.0,-100.00,North,352,3.0,4.0,61,-99.99,,,-99.99,,2013-03-03 09:41:00,
2013-03-03 02:51:00,37.0,22.0,-100.00,WNW,303,1.0,3.0,53,-99.99,,,-99.99,,2013-03-03 09:51:00,
2013-03-03 03:01:00,38.0,22.0,-100.00,NNW,345,1.0,2.0,52,-99.99,,,-99.99,,2013-03-03 10:01:00,
2013-03-03 03:11:00,36.0,22.0,-100.00,NNW,329,3.0,4.0,56,-99.99,,,-99.99,,2013-03-03 10:11:00,
2013-03-03 03:21:00,36.0,22.0,-100.00,NNW,329,3.0,4.0,56,-99.99,,,-99.99,,2013-03-03 10:21:00,
2013-03-03 03:31:00,38.0,22.0,-100.00,NW,310,2.0,4.0,51,-99.99,,,-99.99,,2013-03-03 10:31:00,
2013-03-03 03:41:00,38.0,22.0,-100.00,NW,321,2.0,3.0,51,-99.99,,,-99.99,,2013-03-03 10:41:00,
2013-03-03 03:51:00,38.0,22.0,-100.00,ESE,108,0.0,1.0,52,-99.99,,,-99.99,,2013-03-03 10:51:00,
2013-03-03 04:01:00,35.0,23.0,-100.00,NW,313,4.0,5.0,59,-99.99,,,-99.99,,2013-03-03 11:01:00,
2013-03-03 04:11:00,36.0,22.0,-100.00,North,0,0.0,1.0,57,-99.99,,,-99.99,,2013-03-03 11:11:00,
2013-03-03 04:21:00,36.0,22.0,-100.00,North,0,0.0,1.0,57,-99.99,,,-99.99,,2013-03-03 11:21:00,
2013-03-03 04:31:00,36.0,23.0,-100.00,NNW,331,1.0,2.0,57,-99.99,,,-99.99,,2013-03-03 11:31:00,
2013-03-03 04:41:00,36.0,22.0,-100.00,NW,326,1.0,2.0,57,-99.99,,,-99.99,,2013-03-03 11:41:00,
2013-03-03 04:52:00,35.0,22.0,-100.00,NW,324,5.0,5.0,59,-99.99,,,-99.99,,2013-03-03 11:52:00,
2013-03-03 05:01:00,35.0,22.0,-100.00,NW,324,5.0,5.0,59,-99.99,,,-99.99,,2013-03-03 12:01:00,
2013-03-03 05:11:00,36.0,23.0,-100.00,NNE,12,4.0,4.0,58,-99.99,,,-99.99,,2013-03-03 12:11:00,
2013-03-03 05:21:00,35.0,23.0,-100.00,North,0,0.0,0.0,61,-99.99,,,-99.99,,2013-03-03 12:21:00,
2013-03-03 05:31:00,36.0,23.0,-100.00,West,264,1.0,2.0,58,-99.99,,,-99.99,,2013-03-03 12:31:00,
2013-03-03 05:42:00,36.0,23.0,-100.00,NW,321,0.0,1.0,58,-99.99,,,-99.99,,2013-03-03 12:42:00,
2013-03-03 05:52:00,36.0,23.0,-100.00,WNW,289,4.0,4.0,58,-99.99,,,-99.99,,2013-03-03 12:52:00,
2013-03-03 06:01:00,37.0,23.0,-100.00,WNW,289,3.0,3.0,56,-99.99,,,-99.99,,2013-03-03 13:01:00,
2013-03-03 06:11:00,37.0,22.0,-100.00,West,269,6.0,6.0,55,-99.99,,,-99.99,,2013-03-03 13:11:00,
2013-03-03 06:21:00,37.0,22.0,-100.00,West,269,2.0,4.0,54,-99.99,,,-99.99,,2013-03-03 13:21:00,
2013-03-03 06:31:00,37.0,22.0,-100.00,West,269,2.0,4.0,54,-99.99,,,-99.99,,2013-03-03 13:31:00,
2013-03-03 06:41:00,36.0,22.0,-100.00,SW,234,4.0,5.0,57,-99.99,,,-99.99,,2013-03-03 13:41:00,
2013-03-03 06:51:00,35.0,23.0,-100.00,SSW,210,2.0,2.0,61,-99.99,,,-99.99,,2013-03-03 13:51:00,
2013-03-03 07:01:00,34.0,24.0,-100.00,North,10,2.0,3.0,65,-99.99,,,-99.99,,2013-03-03 14:01:00,
2013-03-03 07:11:00,34.0,24.0,-100.00,North,10,2.0,3.0,65,-99.99,,,-99.99,,2013-03-03 14:11:00,
2013-03-03 07:21:00,36.0,23.0,-100.00,WSW,252,2.0,3.0,57,-99.99,,,-99.99,,2013-03-03 14:21:00,
2013-03-03 07:31:00,36.0,23.0,-100.00,WSW,252,2.0,3.0,57,-99.99,,,-99.99,,2013-03-03 14:31:00,
2013-03-03 07:42:00,35.0,25.0,-100.00,NNE,16,3.0,4.0,65,-99.99,,,-99.99,,2013-03-03 14:42:00,
2013-03-03 07:52:00,34.0,24.0,-100.00,South,174,2.0,3.0,68,-99.99,,,-99.99,,2013-03-03 14:52:00,
2013-03-03 08:01:00,34.0,24.0,-100.00,South,174,2.0,3.0,68,-99.99,,,-99.99,,2013-03-03 15:01:00,
2013-03-03 08:11:00,31.0,26.0,-100.00,SSW,192,3.0,6.0,78,-99.99,,,-99.99,,2013-03-03 15:11:00,
2013-03-03 08:21:00,35.0,24.0,-100.00,West,264,4.0,4.0,64,-99.99,,,-99.99,,2013-03-03 15:21:00,
2013-03-03 08:31:00,35.0,24.0,-100.00,NW,308,3.0,5.0,63,-99.99,,,-99.99,,2013-03-03 15:31:00,
2013-03-03 08:42:00,35.0,24.0,-100.00,NW,308,3.0,5.0,63,-99.99,,,-99.99,,2013-03-03 15:42:00,
2013-03-03 08:51:00,37.0,23.0,-100.00,NNW,329,0.0,3.0,55,-99.99,,,-99.99,,2013-03-03 15:51:00,
2013-03-03 09:01:00,37.0,25.0,-100.00,WSW,252,5.0,6.0,61,-99.99,,,-99.99,,2013-03-03 16:01:00,
2013-03-03 09:11:00,38.0,25.0,-100.00,SW,222,3.0,5.0,59,-99.99,,,-99.99,,2013-03-03 16:11:00,
2013-03-03 09:21:00,38.0,25.0,-100.00,SW,222,3.0,5.0,59,-99.99,,,-99.99,,2013-03-03 16:21:00,
2013-03-03 09:31:00,38.0,24.0,-100.00,SSE,150,2.0,3.0,56,-99.99,,,-99.99,,2013-03-03 16:31:00,
2013-03-03 09:41:00,38.0,28.0,-100.00,ENE,63,9.0,9.0,66,-99.99,,,-99.99,,2013-03-03 16:41:00,
2013-03-03 09:51:00,39.0,25.0,-100.00,NE,37,4.0,6.0,55,-99.99,,,-99.99,,2013-03-03 16:51:00,
2013-03-03 10:01:00,39.0,25.0,-100.00,NE,37,4.0,6.0,55,-99.99,,,-99.99,,2013-03-03 17:01:00,
2013-03-03 10:11:00,41.0,24.0,-100.00,NE,37,6.0,6.0,50,-99.99,,,-99.99,,2013-03-03 17:11:00,
2013-03-03 10:22:00,41.0,24.0,-100.00,NNE,32,5.0,7.0,50,-99.99,,,-99.99,,2013-03-03 17:22:00,
2013-03-03 10:32:00,42.0,24.0,-100.00,ENE,59,4.0,4.0,49,-99.99,,,-99.99,,2013-03-03 17:32:00,
2013-03-03 10:42:00,43.0,24.0,-100.00,ENE,57,3.0,3.0,46,-99.99,,,-99.99,,2013-03-03 17:42:00,
2013-03-03 10:52:00,43.0,24.0,-100.00,ENE,57,3.0,3.0,46,-99.99,,,-99.99,,2013-03-03 17:52:00,
2013-03-03 11:01:00,43.0,23.0,-100.00,NNE,29,4.0,4.0,43,-99.99,,,-99.99,,2013-03-03 18:01:00,
2013-03-03 11:11:00,43.0,26.0,-100.00,WNW,303,4.0,4.0,50,-99.99,,,-99.99,,2013-03-03 18:11:00,
2013-03-03 11:21:00,43.0,26.0,-100.00,WNW,303,4.0,4.0,50,-99.99,,,-99.99,,2013-03-03 18:21:00,
2013-03-03 11:31:00,45.0,23.0,-100.00,SSE,155,3.0,4.0,41,-99.99,,,-99.99,,2013-03-03 18:31:00,
2013-03-03 11:41:00,46.0,24.0,-100.00,WNW,285,2.0,4.0,41,-99.99,,,-99.99,,2013-03-03 18:41:00,
2013-03-03 11:52:00,47.0,23.0,-100.00,South,181,5.0,5.0,37,-99.99,,,-99.99,,2013-03-03 18:52:00,
2013-03-03 12:01:00,48.0,23.0,-100.00,South,178,5.0,5.0,37,-99.99,,,-99.99,,2013-03-03 19:01:00,
2013-03-03 12:11:00,49.0,21.0,-100.00,South,172,6.0,6.0,33,-99.99,,,-99.99,,2013-03-03 19:11:00,
2013-03-03 12:21:00,49.0,24.0,-100.00,ESE,118,5.0,12.0,36,-99.99,,,-99.99,,2013-03-03 19:21:00,
2013-03-03 12:31:00,49.0,24.0,-100.00,ESE,118,5.0,12.0,36,-99.99,,,-99.99,,2013-03-03 19:31:00,
2013-03-03 12:42:00,51.0,23.0,-100.00,SE,130,4.0,6.0,32,-99.99,,,-99.99,,2013-03-03 19:42:00,
2013-03-03 12:51:00,53.0,23.0,-100.00,SE,133,3.0,7.0,31,-99.99,,,-99.99,,2013-03-03 19:51:00,
2013-03-03 13:01:00,52.0,24.0,-100.00,WNW,295,11.0,14.0,33,-99.99,,,-99.99,,2013-03-03 20:01:00,
2013-03-03 13:11:00,53.0,24.0,-100.00,SW,234,5.0,10.0,31,-99.99,,,-99.99,,2013-03-03 20:11:00,
2013-03-03 13:21:00,53.0,22.0,-100.00,WSW,253,11.0,15.0,28,-99.99,,,-99.99,,2013-03-03 20:21:00,
2013-03-03 13:32:00,53.0,21.0,-100.00,SW,232,3.0,11.0,27,-99.99,,,-99.99,,2013-03-03 20:32:00,
2013-03-03 13:42:00,53.0,22.0,-100.00,WSW,244,9.0,11.0,29,-99.99,,,-99.99,,2013-03-03 20:42:00,
2013-03-03 13:52:00,52.0,23.0,-100.00,WSW,257,19.0,23.0,31,-99.99,,,-99.99,,2013-03-03 20:52:00,
2013-03-03 14:01:00,52.0,24.0,-100.00,West,269,15.0,21.0,33,-99.99,,,-99.99,,2013-03-03 21:01:00,
2013-03-03 14:11:00,49.0,26.0,-100.00,WNW,288,22.0,27.0,38,-99.99,,,-99.99,,2013-03-03 21:11:00,
2013-03-03 14:21:00,49.0,26.0,-100.00,West,268,17.0,27.0,40,-99.99,,,-99.99,,2013-03-03 21:21:00,
2013-03-03 14:31:00,49.0,27.0,-100.00,West,276,18.0,23.0,41,-99.99,,,-99.99,,2013-03-03 21:31:00,
2013-03-03 14:41:00,49.0,27.0,-100.00,West,276,18.0,23.0,41,-99.99,,,-99.99,,2013-03-03 21:41:00,
2013-03-03 14:52:00,48.0,30.0,-100.00,WNW,302,17.0,20.0,48,-99.99,,,-99.99,,2013-03-03 21:52:00,
2013-03-03 15:01:00,47.0,28.0,-100.00,WNW,298,21.0,26.0,47,-99.99,,,-99.99,,2013-03-03 22:01:00,
2013-03-03 15:11:00,47.0,28.0,-100.00,WNW,298,21.0,26.0,47,-99.99,,,-99.99,,2013-03-03 22:11:00,
2013-03-03 15:21:00,47.0,27.0,-100.00,WNW,295,19.0,25.0,46,-99.99,,,-99.99,,2013-03-03 22:21:00,
2013-03-03 15:31:00,47.0,28.0,-100.00,West,280,21.0,24.0,46,-99.99,,,-99.99,,2013-03-03 22:31:00,
2013-03-03 15:42:00,46.0,27.0,-100.00,West,276,20.0,28.0,46,-99.99,,,-99.99,,2013-03-03 22:42:00,
2013-03-03 15:52:00,46.0,29.0,-100.00,West,275,17.0,23.0,49,-99.99,,,-99.99,,2013-03-03 22:52:00,
2013-03-03 16:01:00,46.0,29.0,-100.00,West,275,17.0,23.0,49,-99.99,,,-99.99,,2013-03-03 23:01:00,
2013-03-03 16:11:00,46.0,30.0,-100.00,WNW,286,14.0,16.0,53,-99.99,,,-99.99,,2013-03-03 23:11:00,
2013-03-03 16:21:00,46.0,30.0,-100.00,WNW,286,14.0,16.0,53,-99.99,,,-99.99,,2013-03-03 23:21:00,
2013-03-03 16:31:00,45.0,31.0,-100.00,WNW,295,14.0,16.0,56,-99.99,,,-99.99,,2013-03-03 23:31:00,
2013-03-03 16:41:00,45.0,31.0,-100.00,WNW,284,14.0,19.0,56,-99.99,,,-99.99,,2013-03-03 23:41:00,
2013-03-03 16:52:00,45.0,31.0,-100.00,WNW,284,14.0,19.0,56,-99.99,,,-99.99,,2013-03-03 23:52:00,
2013-03-03 17:01:00,46.0,29.0,-100.00,SW,232,13.0,15.0,51,-99.99,,,-99.99,,2013-03-04 00:01:00,
2013-03-03 17:11:00,47.0,29.0,-100.00,SW,221,13.0,18.0,50,-99.99,,,-99.99,,2013-03-04 00:11:00,
2013-03-03 17:21:00,47.0,29.0,-100.00,West,275,6.0,15.0,50,-99.99,,,-99.99,,2013-03-04 00:21:00,
2013-03-03 17:32:00,47.0,29.0,-100.00,West,259,4.0,6.0,49,-99.99,,,-99.99,,2013-03-04 00:32:00,
2013-03-03 17:41:00,47.0,29.0,-100.00,West,259,4.0,6.0,49,-99.99,,,-99.99,,2013-03-04 00:41:00,
2013-03-03 17:51:00,45.0,29.0,-100.00,WNW,285,8.0,9.0,54,-99.99,,,-99.99,,2013-03-04 00:51:00,
2013-03-03 18:01:00,45.0,29.0,-100.00,WNW,285,8.0,9.0,54,-99.99,,,-99.99,,2013-03-04 01:01:00,
2013-03-03 18:11:00,44.0,29.0,-100.00,West,270,12.0,15.0,54,-99.99,,,-99.99,,2013-03-04 01:11:00,
2013-03-03 18:21:00,43.0,30.0,-100.00,WNW,289,9.0,10.0,59,-99.99,,,-99.99,,2013-03-04 01:21:00,
2013-03-03 18:31:00,43.0,29.0,-100.00,West,271,8.0,13.0,56,-99.99,,,-99.99,,2013-03-04 01:31:00,
2013-03-03 18:42:00,43.0,29.0,-100.00,West,279,9.0,10.0,56,-99.99,,,-99.99,,2013-03-04 01:42:00,
2013-03-03 18:51:00,42.0,29.0,-100.00,West,275,10.0,11.0,58,-99.99,,,-99.99,,2013-03-04 01:51:00,
2013-03-03 19:01:00,42.0,29.0,-100.00,WNW,291,9.0,11.0,59,-99.99,,,-99.99,,2013-03-04 02:01:00,
2013-03-03 19:11:00,42.0,29.0,-100.00,WNW,282,11.0,13.0,59,-99.99,,,-99.99,,2013-03-04 02:11:00,
2013-03-03 19:22:00,43.0,29.0,-100.00,West,260,14.0,15.0,58,-99.99,,,-99.99,,2013-03-04 02:22:00,
2013-03-03 19:31:00,43.0,29.0,-100.00,West,260,14.0,15.0,58,-99.99,,,-99.99,,2013-03-04 02:31:00,
2013-03-03 19:41:00,42.0,29.0,-100.00,West,262,12.0,18.0,60,-99.99,,,-99.99,,2013-03-04 02:41:00,
2013-03-03 19:52:00,42.0,30.0,-100.00,West,280,13.0,17.0,61,-99.99,,,-99.99,,2013-03-04 02:52:00,
2013-03-03 20:01:00,41.0,30.0,-100.00,WNW,283,15.0,19.0,62,-99.99,,,-99.99,,2013-03-04 03:01:00,
2013-03-03 20:11:00,42.0,29.0,-100.00,West,278,17.0,18.0,59,-99.99,,,-99.99,,2013-03-04 03:11:00,
2013-03-03 20:21:00,42.0,29.0,-100.00,West,278,17.0,18.0,59,-99.99,,,-99.99,,2013-03-04 03:21:00,
2013-03-03 20:31:00,42.0,29.0,-100.00,West,277,13.0,15.0,58,-99.99,,,-99.99,,2013-03-04 03:31:00,
2013-03-03 20:41:00,42.0,29.0,-100.00,West,279,16.0,20.0,60,-99.99,,,-99.99,,2013-03-04 03:41:00,
2013-03-03 20:52:00,42.0,29.0,-100.00,West,272,16.0,20.0,59,-99.99,,,-99.99,,2013-03-04 03:52:00,
2013-03-03 21:01:00,42.0,29.0,-100.00,West,263,11.0,13.0,60,-99.99,,,-99.99,,2013-03-04 04:01:00,
2013-03-03 21:11:00,42.0,29.0,-100.00,WSW,249,10.0,12.0,61,-99.99,,,-99.99,,2013-03-04 04:11:00,
2013-03-03 21:21:00,42.0,29.0,-100.00,SW,235,8.0,9.0,60,-99.99,,,-99.99,,2013-03-04 04:21:00,
2013-03-03 21:31:00,41.0,29.0,-100.00,WSW,255,9.0,11.0,60,-99.99,,,-99.99,,2013-03-04 04:31:00,
2013-03-03 21:41:00,42.0,29.0,-100.00,West,264,11.0,16.0,60,-99.99,,,-99.99,,2013-03-04 04:41:00,
2013-03-03 21:51:00,42.0,29.0,-100.00,West,260,9.0,10.0,59,-99.99,,,-99.99,,2013-03-04 04:51:00,
2013-03-03 22:01:00,41.0,29.0,-100.00,West,270,7.0,8.0,61,-99.99,,,-99.99,,2013-03-04 05:01:00,
2013-03-03 22:11:00,41.0,29.0,-100.00,WNW,298,10.0,11.0,61,-99.99,,,-99.99,,2013-03-04 05:11:00,
2013-03-03 22:22:00,41.0,29.0,-100.00,WNW,298,10.0,11.0,61,-99.99,,,-99.99,,2013-03-04 05:22:00,
2013-03-03 22:31:00,41.0,28.0,-100.00,West,272,7.0,8.0,61,-99.99,,,-99.99,,2013-03-04 05:31:00,
2013-03-03 22:42:00,42.0,29.0,-100.00,WNW,300,7.0,12.0,57,-99.99,,,-99.99,,2013-03-04 05:42:00,
2013-03-03 22:52:00,43.0,28.0,-100.00,WNW,286,7.0,8.0,56,-99.99,,,-99.99,,2013-03-04 05:52:00,
2013-03-03 23:01:00,43.0,28.0,-100.00,WNW,286,7.0,8.0,56,-99.99,,,-99.99,,2013-03-04 06:01:00,
2013-03-03 23:11:00,40.0,28.0,-100.00,NNE,28,4.0,11.0,61,-99.99,,,-99.99,,2013-03-04 06:11:00,
2013-03-03 23:21:00,40.0,28.0,-100.00,ENE,61,4.0,6.0,63,-99.99,,,-99.99,,2013-03-04 06:21:00,
2013-03-03 23:31:00,40.0,29.0,-100.00,ENE,76,8.0,8.0,62,-99.99,,,-99.99,,2013-03-04 06:31:00,
2013-03-03 23:42:00,40.0,29.0,-100.00,ENE,76,8.0,8.0,62,-99.99,,,-99.99,,2013-03-04 06:42:00,
2013-03-03 23:51:00,40.0,28.0,-100.00,SSW,209,4.0,5.0,62,-99.99,,,-99.99,,2013-03-04 06:51:00,